Location: Newark
(39.6172°N, 96.8533°W)
Time: 09:11:44
(UTC+00:00)

N. Korean satellite - Visible Passes

Search period start: 22 January 2020 00:00
Search period end: 01 February 2020 00:00
Orbit: 454 x 507 km, 97.2° (Epoch: 21 January)

Date Brightness Start Highest point End Pass type
(mag) Time Alt. Az. Time Alt. Az. Time Alt. Az.
22 Jan 9.6 00:20:58 10° SW 00:23:21 18° W 00:25:45 10° NW visible
22 Jan 8.4 11:46:49 10° NNE 11:50:04 32° E 11:53:20 10° SSE visible
23 Jan 9.7 11:22:11 10° NE 11:24:27 16° E 11:26:42 10° SE visible
23 Jan 7.4 12:54:46 10° NNW 12:57:51 28° WNW 13:00:57 10° SW visible
24 Jan 6.5 12:28:55 10° N 12:32:27 62° WNW 12:36:01 10° SSW visible
25 Jan 10.3 00:39:34 10° WSW 00:40:20 11° W 00:41:06 10° WNW visible
25 Jan 7.2 12:03:26 10° NNE 12:06:59 57° E 12:10:33 10° S visible
26 Jan 9.4 00:11:55 10° SSW 00:14:40 22° W 00:17:26 10° NW visible
26 Jan 8.9 11:38:21 10° NE 11:41:25 26° E 11:44:30 10° SSE visible
26 Jan 8.0 13:12:08 10° NNW 13:14:37 18° WNW 13:17:06 10° WSW visible
27 Jan 10.0 11:14:07 10° ENE 11:15:46 13° E 11:17:25 10° ESE visible
27 Jan 7.1 12:45:57 10° N 12:49:16 36° WNW 12:52:37 10° SW visible
28 Jan 6.5 12:20:14 10° N 12:23:50 82° WNW 12:27:30 10° SSW visible
29 Jan 9.9 00:29:47 10° SW 00:31:37 14° W 00:33:27 10° WNW visible
29 Jan 7.8 11:54:52 10° NNE 11:58:20 43° E 12:01:50 10° S visible
30 Jan 9.3 11:29:57 10° NE 11:32:45 21° E 11:35:33 10° SE visible
30 Jan 7.8 13:03:09 10° NNW 13:06:02 22° WNW 13:08:56 10° WSW visible
31 Jan 6.8 12:37:09 10° N 12:40:40 47° WNW 12:44:12 10° SSW visible
